Cloud_Cover
0 0 0 0 0 0 0 0 0 0 0 12 64 76 80 88 88 88 88 88 88 88 88 88 88 88 88 88 88 88 88 88 88 88 92 92 92 92 68 32 0 8 12 20 8 0 12 32 44 56 76 64 0 32 44 48 80 76 56 32 24 24 44 56 12 0 0 0 0 0 8 12 20 8 20 44 92 92 92 92 92 32 12 20 36 48 64 68 80 68 68 68 44 56 76 80 76 88 92 92 88 76 56
0 0 0 0 0 0 0 0 0 0 0 0 0 24 64 88 88 88 88 88 88 88 88 88 88 88 88 88 88 88 88 88 88 88 92 92 92 88 88 68 12 0 24 48 44 12 44 88 88 76 56 24 0 12 36 68 88 76 48 24 12 8 0 0 0 0 0 0 0 0 0 8 8 12 56 92 88 88 76 76 88 32 12 20 12 12 20 24 48 64 56 48 56 48 44 44 64 80 92 92 80 68 76
0 0 0 0 0 0 0 0 0 0 0 0 0 0 32 68 76 88 88 88 88 88 88 88 88 88 88 88 88 88 88 88 88 88 92 88 76 80 68 56 44 12 20 36 56 12 24 48 48 12 0 0 0 0 12 32 48 56 56 44 12 8 0 0 0 0 0 0 0 0 0 0 8 36 68 88 76 64 56 56 76 32 12 8 8 8 8 12 12 36 48 44 20 20 24 44 68 68 76 80 80 48 48
0 0 0 0 0 0 0 0 0 0 0 0 0 0 0 12 48 76 80 80 88 88 88 88 88 88 88 88 88 88 88 88 88 88 88 76 32 64 44 12 12 0 0 0 0 0 0 0 0 0 0 0 0 0 0 0 0 32 36 32 12 8 0 0 0 0 0 0 0 0 0 8 12 12 48 88 68 76 68 64 48 24 24 24 12 0 0 8 8 12 12 12 12 12 24 44 48 36 36 48 48 56 56
0 0 0 0 0 0 0 0 0 0 0 0 0 0 0 8 32 48 44 44 88 80 80 88 88 88 88 88 88 80 76 68 64 64 76 88 88 32 8 0 0 0 0 0 0 0 0 8 0 0 0 0 0 0 0 0 0 0 12 20 8 8 8 8 0 0 0 0 0 0 0 0 20 20 44 64 32 32 20 0 0 36 76 68 0 0 0 0 0 8 8 8 8 12 36 48 32 24 24 32 32 32 44
0 0 0 0 0 0 0 0 0 0 0 0 0 0 0 0 0 0 0 12 56 44 48 64 76 80 76 76 80 68 44 24 8 12 36 64 48 12 0 0 0 0 0 0 0 0 0 0 0 0 0 0 0 0 0 0 0 0 0 0 0 0 8 12 0 0 0 0 0 0 0 0 12 24 24 20 24 44 24 0 0 68 76 44 0 0 0 0 0 0 8 8 8 12 12 20 32 20 12 20 24 24 24
0 0 0 0 0 0 0 0 0 0 0 0 0 0 0 0 0 0 0 0 0 0 0 12 36 48 48 44 44 48 36 20 0 8 8 8 8 0 0 0 0 0 0 0 0 0 0 0 0 0 0 0 0 0 0 0 0 0 0 0 0 0 8 8 0 0 0 0 0 0 0 0 0 0 0 12 44 48 24 0 12 48 32 0 0 0 0 0 0 0 0 0 8 8 8 12 12 12 12 12 20 20 24
0 0 0 0 0 0 0 0 0 0 0 0 0 0 0 0 0 0 0 0 0 0 0 0 0 24 24 8 0 0 0 0 0 0 0 0 0 0 0 0 0 0 0 0 8 0 0 0 0 0 0 0 0 0 0 0 0 0 0 0 0 0 8 12 8 0 0 0 0 0 0 0 0 0 8 24 44 56 24 0 12 8 8 0 0 0 0 0 0 0 0 0 0 8 8 8 8 8 12 12 12 12 20
0 0 0 0 0 0 0 0 0 0 0 0 0 0 0 0 0 0 0 0 0 0 0 0 0 8 8 0 0 0 0 0 0 0 0 0 0 0 0 0 0 0 0 0 8 0 0 0 0 0 0 0 0 0 0 0 0 8 0 0 0 12 36 44 20 8 20 32 24 8 0 0 0 12 32 48 48 32 12 0 0 0 0 0 0 0 0 0 0 0 0 0 0 0 8 8 8 8 8 8 12 12 12
0 0 0 0 0 0 0 0 0 0 0 0 0 0 0 0 0 0 0 0 0 0 0 0 0 0 0 0 0 0 0 0 0 0 0 0 0 0 0 0 0 0 0 0 8 12 8 0 0 0 0 0 0 0 0 0 0 12 12 0 0 36 56 56 36 12 24 48 48 36 24 20 36 44 48 56 48 32 8 0 0 0 0 0 0 0 0 0 0 0 0 0 0 0 0 0 8 8 8 8 8 8 8
0 0 0 0 0 0 0 0 0 0 0 0 0 0 0 0 0 0 0 0 0 0 0 0 0 0 0 0 0 0 0 0 8 12 12 12 0 0 0 0 0 0 0 0 0 8 0 0 0 0 0 0 0 0 0 0 0 8 8 0 8 36 32 20 12 8 32 48 44 64 56 48 64 36 24 20 12 12 8 0 0 0 0 0 0 0 0 0 0 0 0 0 0 0 0 0 0 0 8 8 8 8 8
0 0 0 0 0 0 0 0 0 0 0 0 0 0 0 0 0 0 0 0 0 0 0 0 0 0 0 0 0 0 0 0 20 32 24 8 0 0 0 0 8 0 0 0 0 0 0 0 0 0 0 0 0 0 0 0 0 0 0 0 0 12 8 0 0 0 12 20 12 24 24 24 20 8 0 0 0 0 0 0 0 0 0 0 0 0 0 0 0 0 0 0 0 0 0 0 0 0 0 8 8 8 8
0 0 0 0 0 0 0 0 0 0 0 0 0 0 0 0 0 0 0 0 0 0 0 0 0 0 0 0 0 0 0 0 8 12 12 12 0 12 12 8 8 0 0 0 0 0 0 0 0 0 0 0 0 0 0 0 0 0 0 0 0 0 0 0 0 0 0 0 0 0 0 0 0 0 0 0 0 0 0 0 0 8 0 0 0 0 0 0 0 0 0 0 0 0 0 0 0 0 0 0 0 8 8
0 0 0 0 0 0 0 0 0 0 0 0 0 0 0 0 0 0 0 0 0 0 0 0 0 0 0 0 0 0 0 0 0 0 0 8 0 8 8 8 8 0 0 0 0 0 0 0 0 0 0 0 0 0 0 0 0 0 0 0 0 0 0 0 0 0 0 0 0 0 0 0 0 0 0 0 0 0 0 0 0 32 44 44 32 8 0 0 0 0 0 0 0 0 0 0 0 0 0 0 0 0 0
0 0 0 0 0 0 0 0 0 0 0 0 0 0 0 0 0 0 0 0 0 0 0 0 0 0 0 0 0 0 0 0 0 0 0 0 0 0 0 8 0 0 0 0 0 0 0 0 0 0 0 0 0 0 0 0 0 0 0 0 0 0 0 0 0 0 0 0 0 0 0 0 0 0 0 0 0 0 0 0 0 8 32 64 76 20 8 8 8 24 20 8 0 0 0 0 0 0 0 0 0 0 0
0 0 0 0 0 0 0 0 0 0 0 0 0 0 0 0 0 0 0 0 0 0 0 0 0 0 0 0 0 0 0 0 0 0 0 0 0 0 0 0 0 0 0 0 0 0 0 0 0 0 0 0 0 0 0 0 0 0 0 0 0 0 0 0 0 0 0 0 0 0 0 0 0 0 0 0 0 0 0 0 0 0 0 12 20 12 20 24 8 12 12 8 0 0 0 0 0 0 0 0 0 0 0
0 0 0 0 0 0 0 0 0 0 0 0 0 0 0 0 0 0 0 0 0 0 0 0 0 0 0 0 0 0 8 0 0 0 0 0 0 0 0 0 0 0 0 0 0 0 0 0 0 0 0 0 0 0 0 0 0 0 0 0 0 0 0 0 0 0 0 0 0 0 0 0 0 0 0 0 0 0 0 0 0 0 0 0 0 0 8 8 0 0 0 0 0 0 0 0 0 0 0 0 0 0 0
0 0 0 0 0 0 0 0 0 0 0 0 0 0 0 0 0 0 0 0 0 0 0 0 0 0 8 8 0 0 0 0 8 8 0 0 0 0 0 0 0 0 0 0 0 0 0 0 0 0 0 0 0 0 0 0 0 0 0 0 0 0 0 0 0 0 0 0 0 0 0 0 0 0 0 0 0 0 0 0 0 0 0 0 0 0 0 0 0 0 0 0 0 0 0 0 0 0 0 0 0 0 0
0 0 0 0 0 0 0 0 0 0 0 0 0 0 0 0 0 0 0 0 0 0 0 0 0 0 0 8 8 0 0 0 0 0 0 0 0 0 0 0 0 0 0 0 0 0 0 0 0 0 0 0 0 0 0 0 0 0 0 0 0 0 0 0 0 0 0 0 0 0 0 0 0 0 0 0 0 0 0 0 0 0 0 0 0 0 0 0 0 0 0 0 0 0 0 0 0 0 0 0 0 0 0
0 0 0 0 0 0 0 0 0 0 0 0 0 0 0 0 0 0 0 0 0 0 0 0 0 0 0 0 0 0 0 0 0 0 0 0 0 0 0 0 0 0 0 0 0 0 0 0 0 0 0 0 0 0 0 0 0 0 0 0 0 0 0 0 0 0 0 0 0 0 0 0 0 0 0 0 0 0 0 0 0 0 0 0 0 0 0 0 0 0 0 0 0 0 0 0 0 0 0 0 0 0 0
0 0 0 0 0 0 0 0 0 0 0 0 0 0 0 0 0 0 0 0 0 0 0 0 0 0 0 0 0 0 0 0 0 0 0 0 0 0 0 0 0 0 0 0 0 0 0 0 0 0 0 0 0 0 0 0 0 0 0 0 0 0 0 0 0 0 0 0 0 0 0 0 0 0 0 0 0 0 0 0 0 0 0 0 0 0 0 0 0 0 0 0 0 0 0 0 0 0 0 0 0 0 0
0 0 0 0 0 0 0 0 0 0 0 0 0 0 0 0 0 0 0 0 0 0 0 0 0 0 0 0 0 0 0 0 0 0 0 0 0 0 0 0 0 0 0 0 0 0 0 0 0 0 0 0 0 0 0 0 0 0 0 0 0 0 0 0 0 0 0 0 0 0 0 0 0 0 0 0 0 0 0 0 0 0 0 0 0 0 0 0 0 0 0 0 0 0 0 0 0 0 0 0 0 0 0
0 0 0 0 0 0 0 0 0 0 0 0 0 0 0 0 0 0 0 0 0 0 0 0 0 0 0 0 0 0 0 0 0 0 0 0 0 0 0 0 0 0 0 0 0 0 0 0 0 0 0 0 0 0 0 0 0 0 0 0 0 0 0 0 0 0 0 0 0 0 0 0 0 0 0 0 0 0 0 0 0 0 0 0 0 0 0 0 0 0 0 0 0 0 0 0 0 0 0 0 0 0 0
0 0 0 0 0 0 0 0 0 0 0 0 0 0 0 0 0 0 0 0 0 0 0 0 0 0 0 0 0 0 0 0 0 0 0 0 0 0 0 0 0 0 0 0 0 0 0 0 0 0 0 0 0 0 0 0 0 0 0 0 0 0 0 0 0 0 0 0 0 0 0 0 0 0 0 0 0 0 0 0 0 0 0 0 0 0 0 0 0 0 0 0 0 0 0 0 0 0 0 0 0 0 0
0 0 0 0 0 0 0 0 0 0 0 0 0 0 0 0 0 0 0 0 0 0 0 0 0 0 0 0 0 0 0 0 0 0 0 0 0 0 0 0 0 0 0 0 0 0 0 0 0 0 0 0 0 0 0 0 0 0 0 0 0 0 0 0 0 0 0 0 0 0 0 0 0 0 0 0 0 0 0 0 0 0 0 0 0 0 0 0 0 0 0 0 0 0 0 0 0 0 0 0 0 0 0
0 0 0 0 0 0 0 0 0 0 0 0 0 0 0 0 0 0 0 0 0 0 0 0 0 0 0 0 0 0 0 0 0 0 0 0 0 0 0 0 0 0 0 0 0 0 0 0 0 0 0 0 0 0 0 0 0 0 0 0 0 0 0 0 0 0 0 0 0 0 0 0 0 0 0 0 0 0 0 0 0 0 0 0 0 0 0 0 0 0 0 0 0 0 0 0 0 0 0 0 0 0 0
0 0 0 0 0 0 0 0 0 0 0 0 0 0 0 0 0 0 0 0 0 0 0 0 0 0 0 0 0 0 0 0 0 0 0 0 0 0 0 0 0 0 0 0 0 0 0 0 0 0 0 0 0 0 0 0 0 0 0 0 0 0 0 0 0 0 0 0 0 0 0 0 0 0 0 0 0 0 0 0 0 0 0 0 0 0 0 0 0 0 0 0 0 0 0 0 0 0 0 0 0 0 0
0 0 0 0 0 0 0 0 0 0 0 0 0 0 0 0 0 0 0 0 0 0 0 0 0 0 0 0 0 0 0 0 0 0 0 0 0 0 0 0 0 0 0 0 0 0 0 0 0 0 0 0 0 0 0 0 0 0 0 0 0 0 0 0 0 0 0 0 0 0 0 0 0 0 0 0 0 0 0 0 0 0 0 0 0 0 0 0 0 0 0 0 0 0 0 0 0 0 0 0 0 0 0
0 0 0 0 0 0 0 0 0 0 0 0 0 0 0 0 0 0 0 0 0 0 0 0 0 0 0 0 0 0 0 0 0 0 0 0 0 0 0 0 0 0 0 0 0 0 0 0 0 0 0 0 0 0 0 0 0 0 0 0 0 0 0 0 0 0 0 0 0 0 0 0 0 0 0 0 0 0 0 0 0 0 0 0 0 0 0 0 0 0 0 0 0 0 0 0 0 0 0 0 0 0 0
0 0 0 0 0 0 0 0 0 0 0 0 0 0 0 0 0 0 0 0 0 0 0 0 0 0 0 0 0 0 0 0 0 0 0 0 0 0 0 0 0 0 0 0 0 0 0 0 0 0 0 0 0 0 0 0 0 0 0 0 0 0 0 0 0 0 0 0 0 0 0 0 0 0 0 0 0 0 0 0 0 0 0 0 0 0 0 0 0 0 0 0 0 0 0 0 0 0 0 0 0 0 0
0 0 0 0 8 8 8 12 12 12 12 12 8 0 0 0 0 0 0 0 0 0 0 0 0 0 0 0 0 0 0 0 0 0 0 0 0 0 0 0 0 0 0 0 0 0 0 0 0 0 0 0 0 0 0 0 0 0 0 0 0 0 0 0 0 0 0 0 0 0 0 0 0 0 0 0 0 0 0 0 0 0 0 0 0 0 0 0 0 0 0 0 0 0 0 0 0 0 0 0 0 0 0
0 0 0 8 20 12 20 20 24 24 24 24 20 12 8 8 0 0 0 0 0 0 0 0 8 8 8 8 0 0 0 0 0 0 0 0 0 0 0 0 0 0 0 0 0 0 0 0 0 0 0 0 0 0 0 0 0 0 0 0 0 0 0 0 0 0 0 0 0 0 0 0 0 0 0 0 0 0 0 0 0 0 0 0 0 0 0 0 0 0 0 0 0 0 0 0 0 0 0 0 0 0 0
0 0 8 20 24 24 24 32 32 32 32 32 24 24 20 8 8 0 0 0 0 0 0 0 12 12 12 8 0 0 0 0 0 0 0 0 0 0 0 0 0 0 0 0 0 0 0 0 0 0 0 0 0 0 0 0 0 0 0 0 0 0 0 0 0 0 0 0 0 0 0 0 0 0 0 0 0 0 0 0 0 0 0 0 0 0 0 0 0 0 0 0 0 0 0 0 0 0 0 0 0 0 0
0 0 12 20 24 24 32 32 32 36 36 36 36 32 24 12 8 8 0 0 0 0 0 12 20 12 12 8 0 0 0 0 0 0 0 0 0 0 0 0 0 0 0 0 0 0 0 0 0 0 0 0 0 0 0 0 0 0 0 0 0 0 0 0 0 0 0 0 0 0 0 0 0 0 0 0 0 0 0 0 0 0 0 0 0 0 0 0 0 0 0 0 0 0 0 0 0 0 0 0 0 0 0
0 8 12 20 20 20 12 12 20 44 44 44 44 36 32 20 12 8 0 0 0 0 8 20 20 12 8 0 0 0 0 0 0 0 0 0 0 0 0 0 0 0 0 0 0 0 0 0 0 0 0 0 0 0 0 0 0 0 0 0 0 0 0 0 0 0 0 0 0 0 0 0 0 0 0 0 0 0 0 0 0 0 0 0 0 0 0 0 0 0 0 0 0 0 0 0 0 0 0 0 0 0 0
0 12 20 20 12 12 0 0 12 48 56 48 48 44 32 24 12 8 0 0 0 8 12 12 12 8 0 0 0 0 0 0 0 0 0 0 0 0 0 0 0 0 0 0 0 0 0 0 0 0 0 0 0 0 0 0 0 0 0 0 0 0 0 0 0 0 0 0 0 0 0 0 0 0 0 0 0 0 0 0 0 0 0 0 0 0 0 0 0 0 0 0 0 0 0 0 0 0 0 0 0 0 0
0 12 20 20 12 0 0 8 44 68 68 56 48 44 32 20 12 8 0 0 0 12 20 20 12 0 0 0 0 0 0 0 0 0 0 0 0 0 0 0 0 0 0 0 0 0 0 0 0 0 0 0 0 0 0 0 0 0 0 0 0 0 0 0 0 0 0 0 0 0 0 0 0 0 0 0 0 0 0 0 0 0 0 0 0 0 0 0 0 0 0 0 0 0 0 0 0 0 0 0 0 0 0
0 12 20 12 8 0 8 24 68 68 64 56 44 36 24 20 12 8 8 8 8 12 12 12 8 0 0 0 0 0 0 0 0 0 0 0 0 0 0 0 0 0 0 0 0 0 0 0 0 0 0 0 0 0 0 0 0 0 0 0 0 0 0 0 0 0 0 0 0 0 0 0 0 0 0 0 0 0 0 0 0 0 0 0 0 0 0 0 0 0 0 0 0 0 0 0 0 0 0 0 0 0 0
12 12 8 0 0 0 0 12 44 44 48 44 36 24 20 12 20 12 12 8 8 0 8 8 0 0 0 0 0 0 0 0 0 0 0 0 0 0 0 0 0 0 0 0 0 0 0 0 0 0 0 0 0 0 0 0 0 0 0 0 0 0 0 0 0 0 0 0 0 0 0 0 0 0 0 0 0 0 0 0 0 0 0 0 0 0 0 0 0 0 0 0 0 0 0 0 0 0 0 0 0 0 0
12 8 0 0 0 0 0 0 8 20 20 20 20 8 0 0 12 20 12 8 0 0 0 8 0 0 8 8 12 8 0 0 0 0 0 0 8 0 0 0 0 0 0 0 0 8 8 8 0 0 0 0 0 0 0 0 0 0 0 0 0 0 0 0 0 0 0 0 0 0 0 0 0 0 0 0 0 0 0 0 0 0 0 0 0 0 0 0 0 0 0 0 0 0 0 0 0 0 0 0 0 0 0
8 0 0 0 0 0 8 12 8 12 12 12 12 0 0 0 0 8 8 0 0 0 8 12 12 12 20 24 20 8 0 0 0 0 0 0 0 0 0 0 8 8 8 8 8 12 12 8 8 0 0 0 0 0 0 0 0 0 0 0 0 0 0 0 0 0 0 0 0 0 0 0 0 0 0 0 0 0 0 0 0 0 0 0 0 0 0 0 0 0 8 8 0 0 0 0 0 0 0 0 0 0 0
0 0 0 0 8 12 12 8 0 8 12 8 8 0 0 0 0 0 0 8 8 8 20 24 32 44 44 36 24 20 8 8 0 0 0 0 0 0 0 0 0 12 12 12 24 24 24 12 8 0 0 0 0 0 0 0 0 0 0 0 0 0 0 8 8 8 8 0 8 8 8 0 0 0 0 0 0 0 0 0 0 0 0 0 0 0 0 0 0 0 0 0 0 0 0 0 0 0 0 0 0 0 0
0 0 0 0 8 8 0 0 12 8 8 8 0 8 0 0 0 8 8 12 12 20 36 56 64 68 56 48 36 24 20 8 0 0 0 0 0 0 0 0 0 12 20 24 44 36 32 20 8 0 0 0 8 8 0 0 0 0 0 0 0 8 8 8 8 8 8 8 8 8 8 8 8 8 8 8 8 0 0 0 8 0 0 0 0 0 0 0 0 0 0 0 0 0 0 0 0 0 0 0 0 0 0
0 0 0 0 0 0 0 0 8 8 0 8 12 12 12 12 8 12 20 24 24 32 44 48 56 48 36 24 32 20 12 8 0 0 0 0 0 0 0 0 8 12 20 24 44 36 32 20 8 8 8 8 12 20 12 8 0 0 0 0 0 0 0 8 8 8 8 8 8 8 8 8 8 8 0 0 8 8 8 8 8 8 0 0 0 0 0 0 0 0 0 0 0 0 0 0 0 0 0 0 0 8 8
0 8 0 0 0 0 0 0 8 8 20 24 24 24 24 20 12 20 24 24 24 8 0 0 0 0 0 8 24 24 20 12 8 0 0 0 0 0 0 0 0 20 20 12 32 44 36 32 24 20 24 24 32 32 24 12 8 0 0 0 0 0 0 0 0 8 8 0 0 0 0 0 0 0 0 0 0 0 0 0 0 0 0 0 0 0 0 0 0 0 0 0 0 0 0 0 0 0 0 8 8 24 36
8 8 0 0 0 0 0 12 20 36 36 36 36 32 24 20 12 12 8 8 32 12 0 0 0 0 0 12 24 24 20 12 0 0 0 0 0 0 0 0 12 32 36 24 0 36 48 44 36 36 36 44 44 36 32 12 0 0 0 0 0 0 0 0 0 0 0 0 0 0 0 0 0 0 0 0 0 0 0 0 0 0 0 0 0 0 0 0 0 0 0 0 0 0 0 0 0 0 8 20 32 64 64
12 0 0 0 0 8 24 48 56 56 56 48 32 20 12 8 0 24 44 44 36 20 12 8 0 8 20 36 44 48 32 12 8 0 0 0 0 0 0 0 20 44 48 44 32 48 48 44 44 56 56 56 56 44 32 20 0 0 0 0 0 0 0 0 0 0 0 0 0 0 0 0 0 0 0 0 0 0 0 0 0 0 0 0 0 8 12 20 32 24 8 0 0 0 0 0 0 12 32 44 36 44 68
0 0 0 0 0 24 48 64 68 56 48 32 8 0 0 8 12 24 44 64 64 44 32 20 8 48 56 56 56 48 24 8 0 0 0 0 0 0 0 0 8 48 68 76 80 64 48 48 56 68 68 64 56 36 24 12 0 0 0 0 0 0 0 0 0 0 0 0 0 0 0 0 0 0 0 0 0 0 0 0 0 0 0 0 0 0 8 20 36 44 24 0 0 0 0 8 0 8 12 20 8 36 68
0 0 0 12 36 76 68 48 36 24 20 8 0 0 8 20 24 32 56 88 92 56 36 36 68 68 56 44 32 24 12 0 0 0 0 0 0 0 0 8 24 68 88 92 92 88 68 64 80 80 76 68 48 32 20 8 0 0 0 0 0 0 0 0 0 0 0 0 0 0 0 0 0 0 0 0 0 0 0 0 0 0 0 0 0 0 0 12 20 32 36 32 32 12 20 24 32 44 36 24 24 32 44
0 0 12 44 76 64 44 24 12 8 8 8 8 8 8 20 44 56 76 88 88 56 44 48 64 48 36 20 12 8 12 12 8 0 0 0 8 12 20 36 68 88 92 92 92 92 88 88 92 92 92 76 36 20 12 8 8 8 8 8 0 0 0 0 0 0 0 0 0 0 0 0 0 0 0 0 0 0 0 0 0 0 0 0 0 0 0 8 20 32 44 48 44 32 24 24 24 32 36 56 92 92 92
12 12 36 64 48 32 24 20 12 8 8 8 8 8 12 24 56 76 64 48 64 56 56 48 32 20 8 0 0 0 12 24 24 12 12 20 32 48 64 76 88 92 92 92 92 92 92 92 92 92 80 64 24 12 12 12 20 20 12 8 0 0 0 0 0 0 0 0 0 0 0 0 0 0 0 0 0 0 0 0 0 0 0 0 0 0 0 20 48 48 56 68 64 36 24 24 20 12 12 36 92 92 92
36 32 36 36 32 24 20 20 12 12 12 12 12 20 32 56 68 36 24 44 88 76 56 32 12 8 0 0 0 0 12 20 20 12 20 32 56 80 92 92 92 92 92 92 92 92 92 92 88 80 64 44 20 12 12 20 24 12 8 0 0 0 0 0 0 0 0 0 0 0 0 0 0 0 0 0 0 0 0 0 8 12 8 0 0 12 32 44 48 56 68 88 92 64 56 48 20 20 20 32 76 88 92
12 20 24 32 24 24 20 20 20 12 12 20 20 32 56 64 36 32 44 64 68 44 32 24 12 12 12 12 20 20 32 36 36 36 44 56 76 92 92 92 88 88 88 88 88 88 80 76 64 48 36 20 8 0 0 8 8 0 0 0 0 0 0 0 0 0 0 0 0 0 0 0 0 0 0 0 0 0 0 0 20 44 36 20 12 24 44 48 32 36 56 68 80 80 88 88 56 44 44 36 44 80 92
12 24 32 24 24 24 20 12 12 12 12 12 12 56 56 36 24 48 56 48 32 20 20 12 20 24 32 44 56 64 64 68 68 80 80 80 76 76 76 76 64 48 48 56 56 56 48 44 24 12 8 0 0 0 0 0 0 0 0 0 0 0 0 0 0 0 0 0 0 0 0 0 0 0 0 0 0 0 0 0 12 24 32 24 24 8 0 0 0 0 0 20 48 68 88 92 92 80 80 76 76 88 92
36 32 24 20 12 12 8 0 0 0 0 8 20 76 64 32 36 48 56 56 36 36 32 32 36 56 76 88 92 92 88 76 68 64 48 36 24 24 24 24 24 12 12 20 20 20 20 12 0 0 0 0 0 0 0 0 0 0 0 0 0 0 0 0 0 0 0 0 0 0 0 0 0 0 0 0 0 0 0 0 0 0 0 0 8 0 0 0 0 0 0 8 44 80 92 92 92 92 92 92 80 80 88
44 24 12 8 0 0 0 0 0 12 20 36 68 88 68 36 36 68 80 76 64 56 56 64 80 92 92 92 80 76 56 32 20 8 0 0 0 0 0 0 0 0 0 0 0 0 0 0 0 0 0 0 0 0 0 0 0 0 0 0 0 0 0 0 0 0 0 0 0 0 0 0 0 0 0 0 0 0 0 0 0 0 0 0 0 0 0 0 0 0 0 8 32 80 92 92 92 92 92 92 76 76 88
24 12 8 0 8 12 8 8 24 48 68 80 92 92 80 76 76 80 80 76 68 68 76 76 88 80 76 68 56 44 24 8 0 0 0 0 0 0 0 0 0 0 0 0 0 0 0 0 0 0 0 0 0 0 0 0 0 0 0 0 0 0 0 0 0 0 0 0 0 0 0 0 0 0 0 0 0 0 0 0 0 0 0 12 48 36 44 36 8 0 0 0 20 44 68 88 92 92 92 92 92 92 92
8 8 12 24 36 56 64 64 76 88 92 92 92 76 76 76 76 64 56 64 68 68 68 64 56 36 32 36 32 24 12 8 0 0 0 0 0 0 0 0 0 0 0 0 0 0 0 0 0 0 0 0 0 0 0 0 0 0 0 0 0 0 0 0 0 0 0 0 0 0 0 0 0 0 0 0 0 0 12 24 32 32 32 44 64 56 76 80 44 44 32 36 76 68 76 88 92 92 92 92 92 92 92
0 44 68 76 80 92 92 92 92 80 76 68 64 56 56 56 56 44 32 20 24 24 20 20 12 8 8 12 12 8 8 0 0 0 0 0 0 0 0 0 0 0 0 0 0 0 0 0 0 0 0 0 0 0 0 0 0 0 0 0 0 0 0 0 0 0 0 0 0 0 0 0 0 0 0 8 0 0 24 48 56 56 48 48 64 64 76 88 80 80 80 80 92 92 92 92 92 92 92 92 92 92 92
20 76 92 92 92 76 64 48 44 44 36 36 48 48 32 20 20 12 8 0 0 0 0 0 0 0 0 0 0 0 0 0 0 0 0 0 0 0 0 0 0 0 0 0 0 0 0 0 0 0 0 0 0 0 0 0 0 0 0 0 0 0 0 0 0 0 0 0 0 0 0 0 0 0 0 0 0 0 12 24 24 24 48 76 88 88 88 92 92 92 92 92 92 92 92 92 92 92 92 92 92 92 92
76 92 88 80 64 44 32 20 8 20 32 44 48 20 8 0 0 0 0 0 0 0 0 0 0 0 0 0 0 0 0 0 0 0 0 0 0 0 0 0 0 0 0 0 0 0 0 0 0 0 0 0 0 0 0 0 0 0 0 0 0 0 0 0 0 0 0 0 0 0 0 0 0 8 12 20 24 24 32 44 64 64 80 92 92 92 92 92 92 92 92 92 92 92 92 92 92 92 92 92 92 92 92